Fort Lewis, WA

4:06 AM PDT on June 24, 2017 (GMT -0700)
Gray Army Air Field

Weather History for KGRF - December, 2012

Change the Weather History Date:

Saturday, December 1, 2012

  Actual Average Record
Temperature  
Mean Temperature 49 °F -  
Max Temperature 54 °F 46 °F 56 °F (2008)
Min Temperature 44 °F 34 °F 16 °F (2014)
Degree Days  
Heating Degree Days 16    
Moisture  
Dew Point 43 °F    
Average Humidity 84    
Maximum Humidity 94    
Minimum Humidity 60    
Precipitation  
Precipitation 0.38 in - - ()
Sea Level Pressure  
Sea Level Pressure 29.50 in    
Wind  
Wind Speed 12 mph (SSE)    
Max Wind Speed 26 mph    
Max Gust Speed 33 mph    
Visibility 10 miles    
Events Rain    
Averages and records for this station are not official NWS values.
T = Trace of Precipitation, MM = Missing Value Source: NWS Daily Summary

Daily Weather History Graph

Daily Weather History Graph

Search for Another Location

Airport or City:

Trip Planner

Search our weather history database for the weather conditions in past years. The results will help you decide how hot, cold, wet, or windy it might be!

Date:

Astronomy

Dec. 01, 2012 Rise Set
Actual Time 7:36 AM PST 4:22 PM PST
Civil Twilight 7:01 AM PST 4:57 PM PST
Nautical Twilight 6:23 AM PST 5:35 PM PST
Astronomical Twilight 5:46 AM PST 6:12 PM PST
Moon 7:21 PM PST (12/1) 9:50 AM PST (12/1)
Length of Visible Light 9h 55m
Length of Day
8h 46m
Waning Gibbous, 91% of the Moon is Illuminated
Dec 1
Waning Gibbous
Dec 6
Last Quarter
Dec 13
New
Dec 19
First Quarter
Dec 28
Full

Hourly Weather History & Observations

Time (PST) Temp. Windchill Dew Point Humidity Pressure Visibility Wind Dir Wind Speed Gust Speed Precip Events Conditions
12:17 AM 50.0 °F - 46.4 °F 87% 29.40 in 10.0 mi SE 11.5 mph - N/A   Light Drizzle
12:39 AM 50.0 °F - 46.4 °F 87% 29.39 in 10.0 mi SSE 9.2 mph - N/A   Mostly Cloudy
12:52 AM 48.2 °F - 46.4 °F 93% 29.39 in 10.0 mi SE 5.8 mph - N/A   Light Drizzle
12:58 AM 48.7 °F - 47.1 °F 94% 29.40 in 10.0 mi SE 6.9 mph - 0.01 in   Light Drizzle
1:14 AM 48.2 °F - 46.4 °F 93% 29.38 in 10.0 mi SSE 12.7 mph - N/A   Overcast
1:18 AM 50.0 °F - 46.4 °F 87% 29.38 in 10.0 mi SSE 13.8 mph - N/A   Light Drizzle
1:58 AM 48.6 °F - 46.4 °F 92% 29.39 in 10.0 mi SE 5.8 mph - 0.06 in   Light Drizzle
2:05 AM 48.2 °F - 46.4 °F 93% 29.38 in 10.0 mi SE 5.8 mph - N/A   Overcast
2:19 AM 48.2 °F - 46.4 °F 93% 29.39 in 10.0 mi SE 8.1 mph - N/A   Light Drizzle
2:33 AM 48.2 °F - 46.4 °F 93% 29.39 in 10.0 mi SE 8.1 mph - N/A   Overcast
2:43 AM 48.2 °F - 46.4 °F 93% 29.39 in 10.0 mi SE 6.9 mph - N/A   Overcast
2:48 AM 48.2 °F - 46.4 °F 93% 29.40 in 10.0 mi SSE 12.7 mph - N/A   Overcast
2:53 AM 48.2 °F - 46.4 °F 93% 29.40 in 10.0 mi SSE 13.8 mph 18.4 mph N/A Rain Light Rain
2:58 AM 48.6 °F - 46.0 °F 91% 29.42 in 10.0 mi SSE 15.0 mph 19.6 mph 0.03 in Rain Light Rain
3:28 AM 50.0 °F - 46.4 °F 87% 29.42 in 10.0 mi SSE 19.6 mph 33.4 mph N/A Rain Light Rain
3:58 AM 48.6 °F - 45.9 °F 90% 29.47 in 9.0 mi South 17.3 mph 29.9 mph 0.10 in Rain Light Rain
4:08 AM 48.2 °F - 44.6 °F 87% 29.46 in 10.0 mi SSE 18.4 mph 29.9 mph N/A   Mostly Cloudy
4:46 AM 48.2 °F - 44.6 °F 87% 29.50 in 10.0 mi South 12.7 mph - N/A   Light Drizzle
4:58 AM 47.5 °F - 44.8 °F 90% 29.52 in 10.0 mi SSE 15.0 mph - 0.02 in Rain Light Rain
5:05 AM 46.4 °F 39.8 °F 44.6 °F 93% 29.52 in 7.0 mi South 16.1 mph 21.9 mph N/A   Overcast
5:08 AM 46.4 °F 39.5 °F 44.6 °F 93% 29.52 in 5.0 mi South 17.3 mph 21.9 mph N/A   Overcast
5:13 AM 46.4 °F 40.7 °F 44.6 °F 93% 29.53 in 4.0 mi South 12.7 mph 21.9 mph N/A Rain Light Rain
5:23 AM 46.4 °F 41.9 °F 44.6 °F 93% 29.53 in 8.0 mi South 9.2 mph 19.6 mph N/A Rain Light Rain
5:28 AM 46.4 °F 40.4 °F 44.6 °F 93% 29.53 in 10.0 mi SSE 13.8 mph 19.6 mph N/A   Mostly Cloudy
5:58 AM 46.8 °F - 43.7 °F 89% 29.57 in 10.0 mi South 16.1 mph 23.0 mph 0.10 in   Scattered Clouds
5:59 AM 46.4 °F 39.0 °F 44.6 °F 93% 29.55 in 10.0 mi South 19.6 mph 27.6 mph N/A Rain Light Rain
6:28 AM 46.4 °F 40.7 °F 42.8 °F 87% 29.57 in 10.0 mi South 12.7 mph 26.5 mph N/A   Mostly Cloudy
6:58 AM 45.5 °F 38.9 °F 42.8 °F 90% 29.61 in 10.0 mi SSE 15.0 mph 21.9 mph 0.04 in   Clear
7:17 AM 46.4 °F 39.8 °F 41.0 °F 81% 29.61 in 10.0 mi SSE 16.1 mph - N/A   Light Drizzle
7:29 AM 44.6 °F 38.8 °F 41.0 °F 87% 29.62 in 10.0 mi South 11.5 mph - N/A   Overcast
7:32 AM 44.6 °F 39.2 °F 41.0 °F 87% 29.62 in 10.0 mi South 10.4 mph - N/A   Light Drizzle
7:47 AM 44.6 °F 39.7 °F 42.8 °F 93% 29.63 in 10.0 mi SSE 9.2 mph - N/A   Overcast
7:51 AM 44.6 °F 40.7 °F 42.8 °F 93% 29.63 in 10.0 mi South 6.9 mph - N/A   Light Drizzle
7:58 AM 44.8 °F 41.0 °F 42.6 °F 92% 29.65 in 10.0 mi SSE 6.9 mph - 0.01 in   Light Drizzle
8:11 AM 44.6 °F 40.2 °F 42.8 °F 93% 29.62 in 10.0 mi SE 8.1 mph - N/A   Overcast
8:58 AM 46.4 °F 39.5 °F 40.6 °F 80% 29.64 in 10.0 mi SSE 17.3 mph - 0.01 in   Mostly Cloudy
9:58 AM 49.5 °F - 40.5 °F 71% 29.64 in 10.0 mi SSE 18.4 mph 27.6 mph N/A   Scattered Clouds
10:58 AM 51.6 °F - 40.1 °F 65% 29.63 in 10.0 mi SSE 26.5 mph 32.2 mph N/A   Scattered Clouds
11:58 AM 54.0 °F - 40.3 °F 60% 29.62 in 10.0 mi SSE 23.0 mph 32.2 mph N/A   Scattered Clouds
12:58 PM 53.8 °F - 40.3 °F 60% 29.60 in 10.0 mi SSE 16.1 mph 32.2 mph N/A   Mostly Cloudy
1:58 PM 52.3 °F - 41.4 °F 66% 29.60 in 10.0 mi SSE 13.8 mph 23.0 mph N/A   Scattered Clouds
2:58 PM 52.2 °F - 39.9 °F 63% 29.60 in 10.0 mi SSE 13.8 mph 24.2 mph N/A   Scattered Clouds
3:58 PM 51.4 °F - 39.2 °F 63% 29.59 in 10.0 mi SSE 18.4 mph - N/A   Scattered Clouds
4:58 PM 50.5 °F - 39.4 °F 66% 29.57 in 10.0 mi SE 11.5 mph - N/A   Mostly Cloudy
5:58 PM 48.9 °F - 41.0 °F 74% 29.54 in 10.0 mi SE 9.2 mph - N/A   Mostly Cloudy
6:58 PM 48.7 °F - 38.7 °F 68% 29.49 in 10.0 mi SSE 6.9 mph - N/A   Overcast
7:58 PM 48.9 °F - 39.6 °F 70% 29.48 in 10.0 mi ESE 6.9 mph - N/A   Mostly Cloudy
8:58 PM 48.0 °F - 40.3 °F 75% 29.46 in 10.0 mi ESE 9.2 mph - N/A   Overcast
9:58 PM 47.5 °F - 39.7 °F 75% 29.41 in 10.0 mi East 8.1 mph - N/A   Mostly Cloudy
10:58 PM 47.5 °F - 39.6 °F 74% 29.34 in 10.0 mi East 8.1 mph - N/A   Partly Cloudy
11:58 PM 48.2 °F - 39.6 °F 72% 29.27 in 10.0 mi ESE 5.8 mph - N/A   Clear